Rochelle, IL

3:28 AM CDT on March 30, 2017 (GMT -0500)
Rochelle

Weather History for KRPJ - February, 2013

Change the Weather History Date:

Sunday, February 17, 2013

  Actual Average (KRFD) Record (KRFD)
Temperature  
Mean Temperature 18 °F -  
Max Temperature 30 °F 32 °F 66 °F (2017)
Min Temperature 6 °F 16 °F -13 °F (1958)
Degree Days  
Heating Degree Days 47    
Moisture  
Dew Point 13 °F    
Average Humidity 74    
Maximum Humidity 92    
Minimum Humidity 52    
Precipitation  
Precipitation 0.00 in - - ()
Sea Level Pressure  
Sea Level Pressure 30.11 in    
Wind  
Wind Speed 5 mph (SSE)    
Max Wind Speed 18 mph    
Max Gust Speed 23 mph    
Visibility 10 miles    
Events      
Averages and records for this station are not official NWS values.
T = Trace of Precipitation, MM = Missing Value Source: NWS Daily Summary

Daily Weather History Graph

Daily Weather History Graph

Search for Another Location

Airport or City:

Trip Planner

Search our weather history database for the weather conditions in past years. The results will help you decide how hot, cold, wet, or windy it might be!

Date:

Astronomy

Feb. 17, 2013 Rise Set
Actual Time 6:48 AM CST 5:32 PM CST
Civil Twilight 6:20 AM CST 6:00 PM CST
Nautical Twilight 5:47 AM CST 6:33 PM CST
Astronomical Twilight 5:15 AM CST 7:05 PM CST
Moon 10:34 AM CST (2/17) 12:35 AM CST (2/17)
Length of Visible Light 11h 40m
Length of Day
10h 43m
Waxing Crescent, 49% of the Moon is Illuminated
Feb 17
Waxing Crescent
Feb 17
First Quarter
Feb 25
Full
Mar 4
Last Quarter
Mar 11
New

Hourly Weather History & Observations

Time (CST) Temp. Windchill Dew Point Humidity Pressure Visibility Wind Dir Wind Speed Gust Speed Precip Events Conditions
12:15 AM 11.1 °F - 8.2 °F 88% 30.18 in 10.0 mi Calm Calm - N/A   Clear
12:35 AM 10.2 °F - 7.7 °F 90% 30.18 in 10.0 mi Calm Calm - N/A   Clear
12:55 AM 10.6 °F - 8.4 °F 91% 30.18 in 10.0 mi Calm Calm - N/A   Clear
1:15 AM 10.2 °F - 7.7 °F 90% 30.17 in 10.0 mi Calm Calm - N/A   Clear
1:35 AM 9.5 °F - 7.2 °F 90% 30.18 in 10.0 mi Calm Calm - N/A   Clear
1:55 AM 9.3 °F - 6.8 °F 89% 30.18 in 10.0 mi Calm Calm - N/A   Clear
2:15 AM 8.4 °F - 5.9 °F 89% 30.18 in 10.0 mi Calm Calm - N/A   Clear
2:35 AM 8.4 °F - 5.7 °F 89% 30.18 in 10.0 mi Calm Calm - N/A   Clear
2:55 AM 8.6 °F - 6.3 °F 90% 30.18 in 10.0 mi Calm Calm - N/A   Clear
3:15 AM 8.6 °F - 6.3 °F 90% 30.17 in 10.0 mi Calm Calm - N/A   Clear
3:35 AM 8.6 °F - 6.1 °F 89% 30.17 in 10.0 mi Calm Calm - N/A   Clear
3:55 AM 7.7 °F - 5.0 °F 89% 30.17 in 10.0 mi Calm Calm - N/A   Clear
4:15 AM 8.4 °F - 5.9 °F 89% 30.17 in 10.0 mi Calm Calm - N/A   Clear
4:35 AM 7.7 °F - 5.7 °F 92% 30.18 in 10.0 mi Calm Calm - N/A   Clear
4:55 AM 7.9 °F - 5.7 °F 91% 30.18 in 10.0 mi Calm Calm - N/A   Clear
5:15 AM 6.8 °F - 4.5 °F 90% 30.19 in 10.0 mi Calm Calm - N/A   Clear
5:35 AM 6.8 °F - 4.3 °F 89% 30.18 in 10.0 mi Calm Calm - N/A   Clear
6:15 AM 7.7 °F 1.0 °F 5.7 °F 92% 30.19 in 10.0 mi SW 3.5 mph - N/A   Clear
6:35 AM 7.7 °F - 5.5 °F 91% 30.19 in 10.0 mi Calm Calm - N/A   Clear
6:55 AM 7.7 °F - 5.5 °F 91% 30.19 in 10.0 mi Calm Calm - N/A   Clear
7:15 AM 8.2 °F - 5.9 °F 90% 30.19 in 10.0 mi Calm Calm - N/A   Clear
7:35 AM 9.7 °F - 7.5 °F 91% 30.19 in 10.0 mi Calm Calm - N/A   Clear
7:55 AM 11.3 °F - 8.1 °F 87% 30.19 in 10.0 mi Calm Calm - N/A   Clear
8:15 AM 13.5 °F 5.8 °F 8.1 °F 79% 30.19 in 10.0 mi South 4.6 mph - N/A   Clear
8:55 AM 16.7 °F 7.2 °F 6.1 °F 63% 30.19 in 10.0 mi SSE 6.9 mph - N/A   Clear
9:15 AM 17.4 °F 9.1 °F 5.5 °F 60% 30.19 in 10.0 mi SSE 5.8 mph - N/A   Clear
9:35 AM 18.1 °F 7.9 °F 6.3 °F 60% 30.19 in 10.0 mi SE 8.1 mph - N/A   Clear
9:55 AM 19.2 °F 10.2 °F 7.2 °F 59% 30.18 in 10.0 mi SE 6.9 mph - N/A   Clear
10:15 AM 19.9 °F 13.4 °F 6.3 °F 55% 30.19 in 10.0 mi SSE 4.6 mph - N/A   Clear
10:35 AM 21.0 °F 13.4 °F 6.8 °F 54% 30.19 in 10.0 mi SSE 5.8 mph - N/A   Clear
10:55 AM 21.7 °F 14.3 °F 7.9 °F 55% 30.19 in 10.0 mi SSE 5.8 mph - N/A   Clear
11:15 AM 23.0 °F 13.1 °F 9.1 °F 55% 30.19 in 10.0 mi South 9.2 mph - N/A   Clear
11:35 AM 24.1 °F 14.4 °F 10.9 °F 57% 30.19 in 10.0 mi South 9.2 mph - N/A   Clear
11:55 AM 25.2 °F 15.1 °F 11.5 °F 56% 30.18 in 10.0 mi South 10.4 mph - N/A   Clear
12:15 PM 25.3 °F 16.0 °F 11.3 °F 55% 30.17 in 10.0 mi SSE 9.2 mph - N/A   Clear
12:35 PM 26.1 °F 17.6 °F 12.2 °F 56% 30.16 in 10.0 mi South 8.1 mph - N/A   Clear
12:55 PM 26.8 °F 17.7 °F 13.1 °F 56% 30.14 in 10.0 mi SSE 9.2 mph - N/A   Clear
1:15 PM 27.9 °F 17.8 °F 13.1 °F 54% 30.14 in 10.0 mi South 11.5 mph - N/A   Clear
1:35 PM 28.4 °F 18.5 °F 12.6 °F 52% 30.12 in 10.0 mi SE 11.5 mph - N/A   Clear
1:55 PM 28.6 °F 18.7 °F 14.4 °F 55% 30.11 in 10.0 mi SSE 11.5 mph - N/A   Clear
2:15 PM 29.8 °F 19.8 °F 16.7 °F 58% 30.10 in 10.0 mi SE 12.7 mph - N/A   Clear
2:35 PM 29.3 °F 19.6 °F 16.0 °F 58% 30.09 in 10.0 mi SSE 11.5 mph - N/A   Clear
2:55 PM 30.2 °F 19.8 °F 17.4 °F 59% 30.08 in 10.0 mi SE 13.8 mph 18.4 mph N/A   Clear
3:15 PM 30.6 °F 21.2 °F 17.4 °F 58% 30.08 in 10.0 mi SSE 11.5 mph - N/A   Clear
3:35 PM 30.2 °F 19.8 °F 18.0 °F 60% 30.07 in 10.0 mi SSE 13.8 mph - N/A   Clear
3:55 PM 30.4 °F 19.5 °F 18.1 °F 60% 30.06 in 10.0 mi SSE 15.0 mph - N/A   Clear
4:15 PM 30.2 °F 18.9 °F 18.5 °F 62% 30.06 in 10.0 mi SSE 16.1 mph - N/A   Clear
4:35 PM 29.8 °F 18.0 °F 18.7 °F 63% 30.06 in 10.0 mi SSE 17.3 mph - N/A   Clear
4:55 PM 30.0 °F 18.7 °F 18.9 °F 63% 30.06 in 10.0 mi SSE 16.1 mph - N/A   Clear
5:15 PM 29.7 °F 18.6 °F 18.9 °F 64% 30.05 in 10.0 mi SSE 15.0 mph - N/A   Clear
5:35 PM 29.1 °F 19.4 °F 19.4 °F 67% 30.04 in 10.0 mi SE 11.5 mph - N/A   Clear
5:55 PM 28.6 °F 19.9 °F 20.3 °F 71% 30.04 in 10.0 mi SE 9.2 mph - N/A   Clear
6:15 PM 28.2 °F 18.3 °F 21.0 °F 74% 30.04 in 10.0 mi SE 11.5 mph - N/A   Clear
6:35 PM 28.0 °F 18.6 °F 21.2 °F 76% 30.03 in 10.0 mi SE 10.4 mph - N/A   Clear
6:55 PM 28.0 °F 17.5 °F 21.0 °F 75% 30.02 in 10.0 mi SE 12.7 mph - N/A   Clear
7:15 PM 28.2 °F 16.8 °F 21.2 °F 75% 30.01 in 10.0 mi SE 15.0 mph - N/A   Clear
7:35 PM 28.0 °F 17.5 °F 21.2 °F 76% 30.01 in 10.0 mi SE 12.7 mph - N/A   Clear
7:55 PM 27.9 °F 16.3 °F 21.2 °F 76% 30.00 in 10.0 mi SE 15.0 mph - N/A   Clear
8:15 PM 28.0 °F 16.5 °F 21.2 °F 76% 30.00 in 10.0 mi SE 15.0 mph 19.6 mph N/A   Clear
8:35 PM 28.0 °F 16.5 °F 21.4 °F 76% 30.00 in 10.0 mi SE 15.0 mph - N/A   Clear
8:55 PM 28.2 °F 17.2 °F 21.7 °F 77% 30.00 in 10.0 mi SSE 13.8 mph - N/A   Clear
9:15 PM 28.2 °F 16.3 °F 22.1 °F 78% 29.99 in 10.0 mi SSE 16.1 mph - N/A   Clear
9:35 PM 28.2 °F 16.3 °F 22.1 °F 78% 29.99 in 10.0 mi SSE 16.1 mph - N/A   Clear
9:55 PM 28.0 °F 15.7 °F 22.5 °F 80% 29.98 in 10.0 mi SSE 17.3 mph - N/A   Clear
10:15 PM 28.0 °F 16.1 °F 22.5 °F 80% 29.97 in 10.0 mi SE 16.1 mph - N/A   Clear
10:35 PM 28.2 °F 16.3 °F 22.5 °F 79% 29.96 in 10.0 mi SSE 16.1 mph - N/A   Clear
10:55 PM 28.2 °F 16.3 °F 22.1 °F 78% 29.95 in 10.0 mi SE 16.1 mph 21.9 mph N/A   Clear
11:15 PM 28.0 °F 15.7 °F 22.1 °F 78% 29.94 in 10.0 mi SE 17.3 mph 23.0 mph N/A   Clear
11:35 PM 28.0 °F 15.3 °F 21.9 °F 78% 29.93 in 10.0 mi SE 18.4 mph 23.0 mph N/A   Clear
11:55 PM 27.9 °F 15.1 °F 21.9 °F 78% 29.92 in 10.0 mi SSE 18.4 mph - N/A   Clear